Regional Weather Roundup
Issued by NWS

Home | Current Version | Previous Version | Graphics & Text | Print | Product List | Glossary On
Versions: 1 2 3 4 5 6 7 8 9 10 11 12 13 14 15 16 17 18 19 20 21 22 23 24 25 26 27 28 29 30 31 32 33 34 35 36 37 38 39 40 41 42 43 44 45 46 47 48 49 50
000
ASUS43 KBIS 300202
RWRND

NORTH DAKOTA REGIONAL WEATHER ROUNDUP
NATIONAL WEATHER SERVICE BISMARCK ND
900 PM CDT FRI MAY 29 2015

NOTE: "FAIR" INDICATES FEW OR NO CLOUDS BELOW 12,000 FEET WITH NO
SIGNIFICANT WEATHER AND/OR OBSTRUCTIONS TO VISIBILITY.


NDZ001>003-009>011-017-300300-
NORTHWEST NORTH DAKOTA

CITY           SKY/WX    TMP DP  RH WIND       PRES   REMARKS
WILLISTON      CLEAR     56  30  37 NE8       30.29R
MINOT          CLEAR     51  32  48 N6        30.29R
MINOT AFB      CLEAR     54  33  45 N8        30.28R
$$

NDZ018>021-031>035-040>046-300300-
SOUTHWEST NORTH DAKOTA

CITY           SKY/WX    TMP DP  RH WIND       PRES   REMARKS
BISMARCK       CLEAR     54  34  46 N8        30.28R
DICKINSON      CLEAR     50  35  56 E8        30.27R
GARRISON         N/A     54  33  45 N3        30.28S
HETTINGER ARPT CLEAR     49  38  65 E7        30.29R
$$

NDZ004>008-012>016-024-026-027-054-300300-
NORTHEAST NORTH DAKOTA

CITY           SKY/WX    TMP DP  RH WIND       PRES   REMARKS
GRAND FORKS    PTCLDY    49  34  56 N16       30.24R
GRND FRKS AFB  PTCLDY    48  31  52 N17       30.25R
DEVILS LAKE    CLEAR     48  30  49 NE15G23   30.27R
$$

NDZ022-023-025-028>030-036>039-047>053-300300-
SOUTHEAST NORTH DAKOTA

CITY           SKY/WX    TMP DP  RH WIND       PRES   REMARKS
FARGO          PTCLDY    51  37  58 N20G26    30.19R
JAMESTOWN      PTCLDY    52  35  52 N17       30.22R
$$



USA.gov is the U.S. government's official web portal to all federal, state and local government web resources and services.